Home > Weather > Shimla > Past weeks

Flag for India Weather for the Past 2 Weeks in Shimla, Himachal Pradesh, India

Now
45 °F

Fog.


Feels Like: 45 °F
Forecast: 34 / 53 °F
Wind: No wind

Location: Amritsar Airport

Current Time: Feb 14, 2016 at 6:01:55 AM

Latest Report: Feb 14, 2016 at 5:00 AM


Visibility: 2 mi

Pressure: 30.04 "Hg (23.12 "Hg at 2147m altitude)

Humidity: 100%

Dew point: 45 °F

Location of ShimlaLocation

Historic Weather in Shimla — Graph

°F

Shimla Temperature Yesterday

Maximum temperature yesterday: 70 °F (at 2:00 PM)
Minimum temperature yesterday: 45 °F (at 4:30 AM)
Average temperature yesterday: 55 °F

High & Low Weather Summary for the Past Weeks

 TemperatureHumidityPressure
High72 °F (Feb 4, 1:30 PM)100% (Jan 30, 4:30 AM)30.15 "Hg (Jan 30, 4:30 AM)
Low41 °F (Feb 1, 6:00 AM)0% (Feb 10, 9:30 PM)29.65 "Hg (Feb 11, 6:30 AM)
Average57 °F84%29.99 "Hg
* Reported Jan 30 4:30 AM — Feb 14 4:30 AM, Shimla, Weather by CustomWeather, © 2016

Note: Actual official high and low records may vary slightly from our data, if they occured in-between our weather recording intervals... More about our weather records

Advertising

Shimla Weather History for the Previous 24 Hours

 ConditionsComfort  
Time TempWeatherWind HumidityBarometerVisibility
4:30 AM
Sun, Feb 14
45 °FFog.No wind100%30.07 "Hg2 mi
4:00 AM46 °FFog.No wind100%30.07 "Hg2 mi
3:00 AM48 °FFog.No wind100%30.07 "Hg2 mi
2:30 AM48 °FFog.No wind100%30.07 "Hg2 mi
2:00 AM48 °FFog.No wind100%30.07 "Hg2 mi
1:30 AM50 °FFog.No wind94%30.07 "Hg2 mi
12:00 AM50 °FFog.No wind82%30.07 "Hg2 mi
11:30 PM
Sat, Feb 13
50 °FFog.No wind82%30.07 "Hg2 mi
11:00 PM52 °FHaze.1 mph77%30.07 "Hg2 mi
10:30 PM52 °FHaze.No wind72%30.07 "Hg2 mi
10:00 PM52 °FHaze.No wind77%30.07 "Hg2 mi
9:30 PM54 °FHaze.No wind77%30.07 "Hg2 mi
9:00 PM54 °FHaze.No wind77%30.07 "Hg2 mi
8:30 PM55 °FHaze.No wind72%30.07 "Hg2 mi
8:00 PM57 °FHaze.No wind59%30.07 "Hg2 mi
7:30 PM57 °FHaze.No wind67%30.04 "Hg2 mi
7:00 PM59 °FHaze.No wind68%30.04 "Hg3 mi
6:30 PM61 °FHaze.No wind63%30.01 "Hg3 mi
4:00 PM68 °FClear.7 mph43%30.01 "Hg3 mi
3:30 PM68 °FClear.8 mph38%30.01 "Hg3 mi
3:00 PM70 °FClear.3 mph35%30.01 "Hg3 mi
2:30 PM68 °FClear.3 mph38%30.04 "Hg3 mi
2:00 PM70 °FClear.No wind31%30.04 "Hg3 mi
1:30 PM68 °FClear.No wind46%30.04 "Hg3 mi
1:00 PM66 °FHaze.2 mph56%30.04 "Hg3 mi
12:30 PM66 °FHaze.3 mph52%30.07 "Hg3 mi
12:00 PM66 °FHaze.2 mph64%30.07 "Hg2 mi
11:30 AM64 °FHaze.5 mph73%30.07 "Hg2 mi
11:00 AM63 °FHaze.No wind68%30.07 "Hg2 mi
10:30 AM59 °FFog.No wind94%30.07 "Hg1 mi
10:00 AM55 °FFog.No wind100%30.07 "Hg1 mi
9:30 AM52 °FFog.No wind100%30.04 "Hg1 mi
9:00 AM50 °FFog.No wind100%30.04 "Hg1 mi
8:30 AM46 °FFog.No wind100%30.01 "Hg1 mi
7:30 AM45 °FFog.No wind100%29.98 "Hg1 mi
7:00 AM45 °FFog.No wind100%29.98 "Hg1 mi
6:30 AM45 °FFog.No wind100%29.95 "Hg1 mi
Weather by CustomWeather, © 2016

See weather overviewHow to use our weather pages